Miscellaneous Local Product
Issued by NWS Hastings, NE

Home | Current Version | Previous Version | Graphics & Text | Print | Product List | Glossary On
Versions: 1 2 3 4 5 6 7 8 9 10 11 12 13 14 15 16 17 18 19 20 21 22 23 24 25 26 27 28 29 30 31 32 33 34 35 36 37 38 39 40 41 42 43 44 45 46 47 48 49 50
000
AXUS43 KGID 300902
MISGRI

GID CWA HOURLY WEATHER ROUNDUP
NATIONAL WEATHER SERVICE HASTINGS NE
400 AM CDT MON MAY 30 2016

NOTE: "FAIR" INDICATES FEW OR NO CLOUDS BELOW 12,000 FEET WITH NO
SIGNIFICANT WEATHER AND/OR OBSTRUCTIONS TO VISIBILITY.

...SOUTH CENTRAL NEBRASKA...

CITY           SKY/WX    TMP DP  RH WIND       PRES   REMARKS
GRAND ISLAND   PTCLDY    62  52  69 W5        29.97F
HASTINGS       CLEAR     60  54  80 SW6       29.98S
KEARNEY        CLEAR     61  52  72 SW9       29.99F
ORD            CLOUDY    63  52  67 SE6       29.97R
YORK           CLEAR     64  52  63 SE5       29.99S
AURORA         PTCLDY    61  53  75 SW6       29.96F
LEXINGTON      CLOUDY    59  51  75 S7        29.98F
HOLDREGE       CLOUDY    58  52  81 CALM      30.00F
HEBRON         CLEAR     62  53  73 E6        30.00R

...NEBRASKA PANHANDLE...

CITY           SKY/WX    TMP DP  RH WIND       PRES   REMARKS
CHADRON        CLOUDY    57  48  72 S7        29.95F
ALLIANCE       CLOUDY    56  50  80 S12       30.00F
SCOTTSBLUFF    CLOUDY    55  50  83 E10       30.02S
SIDNEY         CLOUDY    55  49  80 S14       30.05F

...WESTERN AND NORTH CENTRAL NEBRASKA...

CITY           SKY/WX    TMP DP  RH WIND       PRES   REMARKS
VALENTINE      CLOUDY    57  52  83 NW5       29.95F
AINSWORTH      CLOUDY    59  52  77 SE3       29.97R
ONEILL         CLOUDY    64  58  78 E5        29.99S
BROKEN BOW     CLOUDY    60  53  77 SW3       29.98F
IMPERIAL       PTCLDY    59  51  75 SW10      30.02S
NORTH PLATTE   CLOUDY    60  51  72 CALM      29.97F
MCCOOK         PTCLDY    60  52  74 S10       29.96F

...EASTERN NEBRASKA...

CITY           SKY/WX    TMP DP  RH WIND       PRES   REMARKS
NORFOLK        MOCLDY    68  53  58 W6        29.96F
SO SIOUX CITY  CLOUDY    63  57  81 N6        29.98F
TEKAMAH          N/A    N/A N/A N/A MISG      29.96F
COLUMBUS       MOCLDY    61  50  67 CALM      29.98R
ALBION         MOCLDY    64  54  72 N6        29.97S
OMAHA EPPLEY   CLOUDY    68  60  75 SE6       29.98F
OFFUTT AFB     CLOUDY    62  61  97 SE5       29.98S
MILLARD        CLOUDY    65  61  85 CALM      29.99R
LINCOLN        PTCLDY    66  59  78 SW3       29.99S
NEBRASKA CITY  PTCLDY    65  62  90 S7        29.99S
BEATRICE       CLEAR     64  59  82 S8        29.99F
FALLS CITY     CLEAR     62  61  96 S7        29.99F

...NORTHERN KANSAS...

CITY           SKY/WX    TMP DP  RH WIND       PRES   REMARKS
GOODLAND       PTCLDY    57  50  77 S13       30.05F
HILL CITY      CLEAR     57  52  83 S5        30.01F
NORTON         SUNNY     55  48  76 S3        29.99F
PHILLIPSBURG   CLEAR     55  55 100 CALM      30.01F
SMITH CENTER   CLEAR     55  54  94 SW7       30.01S
BELOIT         CLEAR     63  59  88 SE6       29.99S
HAYS           CLOUDY    59  50  72 SW9       30.03S
RUSSELL        NOT AVBL
CONCORDIA      CLOUDY    64  59  83 S9        29.99F
SALINA         PTCLDY    61  59  93 SE9       30.01S
TOPEKA         FOG       63  62  97 NW3       30.01F VSB 3/4



USA.gov is the U.S. government's official web portal to all federal, state and local government web resources and services.